Theta_e
320 316 316 313 304 302 299 300 308 304 304 312 313 310 310 310 307 305 333 335 335 336 339 339 341 338 336 332 331 330 328 327 326 325 324 323 322 322 322 322 323 323 324 325 325 326 326 327 329
316 312 313 311 300 297 299 305 303 306 310 313 312 311 308 308 319 325 329 334 336 337 337 337 337 336 333 331 329 328 326 325 324 323 321 321 321 322 322 322 321 322 322 323 323 324 324 324 324
315 311 307 304 300 296 299 304 306 307 311 310 308 311 310 311 321 326 334 335 336 336 335 334 336 334 331 329 328 326 325 324 322 321 321 321 321 320 320 320 321 321 321 322 322 323 323 323 322
312 309 306 298 297 300 301 304 305 307 309 311 310 307 314 321 321 329 335 335 334 334 333 334 335 332 330 328 326 325 324 322 320 320 320 320 319 319 319 319 319 320 321 322 323 322 322 322 321
311 307 298 297 298 300 302 304 304 304 306 308 309 306 310 322 329 333 334 334 332 333 332 332 333 331 329 327 325 324 322 319 319 319 318 318 317 317 317 316 316 319 320 321 321 321 321 320 321
304 304 296 294 297 300 302 304 304 303 306 308 307 307 312 325 328 331 334 333 333 332 330 330 328 329 329 327 324 322 319 318 318 317 316 315 314 314 314 315 317 318 318 319 319 319 319 320 320
302 300 296 297 297 298 300 304 303 304 304 304 310 305 314 321 329 331 333 333 332 332 330 329 329 325 326 326 324 320 317 317 316 315 313 311 310 312 312 313 315 316 317 317 318 318 318 318 318
304 302 297 297 296 297 302 304 306 305 304 310 312 305 308 322 328 331 331 331 331 331 331 330 328 325 324 322 320 319 317 316 314 311 309 308 309 310 310 311 312 314 315 316 316 316 316 317 316
305 297 295 297 296 298 302 302 306 307 306 306 310 311 317 326 326 325 325 326 327 328 329 328 326 324 323 320 315 316 316 314 311 310 307 311 311 311 311 310 310 312 314 316 316 316 315 315 316
300 296 297 300 301 299 301 301 303 302 304 304 306 313 321 324 324 322 321 321 324 325 326 326 324 322 320 315 315 314 312 315 314 313 311 311 311 309 309 309 309 311 312 315 316 315 316 316 315
299 296 300 299 300 300 300 300 303 301 301 304 304 307 316 321 322 322 323 324 324 325 325 324 323 321 318 314 313 313 314 315 314 313 311 312 311 311 312 313 314 315 314 315 315 315 314 315 315
295 299 299 299 299 299 299 301 300 301 303 305 305 306 314 317 319 322 323 324 324 325 324 323 322 319 317 314 312 313 314 314 313 311 311 311 310 311 312 313 314 315 315 314 314 314 314 315 315
296 297 299 300 299 298 300 298 299 300 304 306 305 303 309 312 316 320 323 325 325 323 323 323 321 318 315 313 313 314 314 313 311 310 311 311 310 312 313 314 314 314 315 315 315 315 313 313 314
298 298 298 299 299 299 296 298 298 301 304 304 304 302 304 307 312 317 321 323 323 323 323 323 320 318 314 314 314 314 314 312 311 310 310 310 311 312 313 313 314 314 314 316 316 315 314 314 315
297 293 296 297 298 297 298 294 295 301 302 301 301 302 303 304 307 312 319 322 324 324 324 322 320 318 314 314 314 313 312 310 310 310 310 309 311 312 313 314 313 313 314 316 316 316 316 316 315
293 294 289 295 297 296 296 290 298 300 300 301 301 302 302 303 306 311 318 321 323 323 322 321 319 317 315 314 313 312 311 310 310 310 310 310 311 312 313 313 312 314 314 315 314 314 314 314 314
292 287 290 292 295 294 294 292 298 299 298 299 301 301 302 303 307 312 318 321 322 323 322 320 317 316 315 313 313 311 310 309 309 311 309 310 311 312 313 313 313 314 315 314 313 314 315 313 313
288 288 289 289 293 293 292 292 297 299 299 299 301 302 302 302 303 311 316 319 320 321 322 320 317 315 313 312 310 310 309 309 309 310 309 311 311 312 313 313 314 314 313 313 314 313 314 314 313
290 290 289 291 292 290 291 292 295 298 299 299 300 301 303 302 304 305 311 313 317 319 319 318 315 313 311 308 307 307 307 307 308 310 310 310 311 312 313 313 313 314 313 313 314 313 313 313 314
289 287 287 290 292 291 291 291 294 296 297 298 299 300 302 302 303 302 301 304 309 316 318 317 314 311 310 309 310 309 309 308 308 309 309 310 310 311 310 312 313 313 313 314 313 313 312 313 314
289 286 287 287 290 291 289 288 292 296 297 298 300 301 302 302 301 300 302 306 310 314 317 314 312 310 310 309 307 306 307 307 306 306 308 309 309 311 311 312 313 313 313 313 314 313 312 310 315
286 291 289 288 286 283 289 283 291 295 295 296 297 298 299 300 301 302 303 306 310 314 316 313 311 310 309 308 306 305 304 303 305 307 308 308 309 310 310 312 313 312 313 313 314 313 314 313 312
288 291 289 289 287 286 286 283 289 293 291 294 298 299 299 301 300 301 304 307 312 314 314 313 310 309 308 307 308 306 304 305 306 307 306 307 309 309 309 312 312 312 313 314 313 312 314 314 313
292 290 289 288 287 282 286 285 287 291 293 295 298 299 300 301 302 303 305 309 311 313 312 311 309 307 307 307 306 305 303 304 305 305 305 306 308 309 309 311 312 313 313 314 314 313 314 314 315
290 287 284 282 281 281 288 285 288 294 296 296 297 299 300 301 302 303 305 307 309 309 310 309 308 306 306 306 304 303 303 304 305 304 305 305 306 307 308 311 311 312 313 315 315 314 314 315 314
287 288 285 279 279 283 284 282 289 296 297 296 296 298 300 302 303 304 305 307 307 308 309 308 307 305 306 305 303 303 304 304 306 305 306 306 306 307 308 310 311 312 313 314 315 314 313 314 315
287 285 291 284 280 282 286 289 294 296 295 295 295 296 298 302 303 304 306 307 307 308 308 307 308 306 305 303 302 302 303 304 305 305 306 306 306 306 307 309 311 312 313 314 314 313 312 313 315
290 292 283 286 280 278 285 288 290 294 294 295 294 294 297 301 303 305 306 307 308 308 308 308 308 305 303 302 302 302 302 304 305 305 305 305 306 305 307 308 310 311 312 313 313 312 312 312 313
287 287 288 289 287 283 282 286 297 296 298 297 297 296 296 299 302 305 306 307 308 308 307 306 306 304 302 302 301 302 302 303 304 304 305 305 305 306 307 308 309 310 311 312 312 312 311 311 311
291 289 289 285 284 286 286 287 296 298 297 296 297 297 297 298 301 304 305 306 306 307 306 306 305 303 302 301 301 301 302 302 302 303 304 305 304 306 307 307 308 310 311 311 311 310 310 310 310
Wind_Speed
12 8 6 5 7 6 9 3 2 4 4 3 2 6 9 6 8 5 9 4 9 11 14 11 14 15 12 9 9 8 8 9 9 9 9 9 9 9 10 10 10 10 10 10 10 10 11 11 11
8 8 6 4 7 8 4 5 7 3 5 3 2 2 4 5 7 9 9 6 10 11 10 10 13 13 11 9 9 8 9 9 9 9 9 9 9 10 10 10 10 10 11 11 11 10 11 11 12
8 5 6 4 6 8 3 4 4 4 3 2 1 2 3 6 5 8 8 11 11 11 9 11 13 13 10 9 8 9 9 9 9 8 8 9 9 9 10 10 11 11 11 11 10 10 10 11 11
4 5 5 8 9 7 4 1 2 5 3 2 2 3 5 6 4 6 11 12 11 11 9 11 13 12 11 9 9 9 9 8 8 8 8 9 9 10 10 11 11 12 12 12 12 11 12 11 11
5 3 7 7 10 8 5 3 2 5 1 4 4 2 3 6 7 11 12 10 10 13 9 10 11 11 10 9 9 9 8 8 8 8 8 9 9 10 10 11 11 11 11 12 12 12 12 11 11
5 4 7 10 11 6 5 6 6 7 3 4 4 4 5 7 9 9 10 10 9 11 9 9 9 8 8 9 9 9 8 7 7 8 7 8 9 9 9 9 10 10 11 11 11 11 11 11 11
11 7 11 11 8 7 7 1 8 7 8 7 1 4 6 9 10 8 9 9 8 10 10 9 9 9 9 9 9 8 7 7 7 7 7 7 7 7 8 8 9 10 10 11 11 11 11 12 12
7 6 9 8 8 8 3 4 2 6 5 5 2 4 5 11 12 9 8 8 9 8 9 9 9 9 8 8 9 9 8 7 6 5 5 5 4 2 4 8 9 10 10 11 11 12 12 12 13
4 7 9 11 7 1 2 5 5 3 6 5 4 3 7 15 13 12 9 9 8 8 8 8 8 8 7 8 7 8 8 5 3 3 1 6 5 7 7 5 7 9 10 12 12 12 13 13 15
7 9 10 3 5 4 1 5 2 5 10 10 8 7 10 14 14 14 13 11 12 11 11 9 8 8 7 5 7 4 4 1 2 4 6 5 6 5 5 3 4 7 6 9 9 8 11 10 8
5 10 8 5 5 5 6 7 6 7 9 10 9 14 12 11 13 13 13 13 13 12 10 10 9 8 7 5 4 3 2 2 1 4 5 4 5 5 5 4 5 6 5 7 10 10 8 10 8
9 11 11 3 1 4 8 6 8 13 15 4 3 1 14 15 15 15 14 14 14 14 12 11 10 8 7 4 4 3 2 2 1 3 4 4 3 4 4 4 6 5 5 7 4 5 8 9 10
11 13 7 9 8 10 12 14 14 18 15 14 6 6 12 13 15 14 14 13 13 13 13 12 10 9 7 5 3 2 2 1 2 2 3 3 3 4 4 5 5 5 6 5 7 6 5 6 8
4 9 12 11 12 10 9 15 3 10 10 17 17 15 14 14 15 14 15 14 14 14 14 13 12 9 8 6 5 3 2 3 1 2 3 3 3 3 4 5 5 6 6 6 6 6 6 4 2
5 9 13 13 12 9 4 13 18 21 18 11 11 11 12 13 15 17 16 15 15 13 13 13 12 10 9 7 6 3 3 2 1 1 2 3 3 4 5 4 6 4 5 6 6 7 7 7 9
4 4 7 4 9 3 7 15 2 4 8 14 16 14 13 12 16 16 15 15 15 14 14 13 11 11 10 8 5 4 3 2 1 1 1 2 3 4 4 4 4 6 4 5 6 6 6 7 7
7 8 10 8 7 2 12 10 2 1 6 10 10 10 10 9 13 15 16 15 14 15 15 14 12 12 10 7 5 4 4 2 2 1 1 2 3 4 4 4 3 6 4 5 4 6 6 6 6
12 11 12 11 5 7 10 19 17 12 7 8 8 7 9 10 12 14 16 14 14 14 14 14 11 13 11 7 5 4 3 2 2 2 2 1 2 3 3 3 4 5 4 4 6 5 5 5 4
7 10 12 7 2 3 11 18 18 16 15 14 14 12 13 10 10 14 12 12 13 14 15 16 15 14 9 8 6 4 4 4 3 2 2 1 1 2 3 3 4 5 5 6 6 5 6 5 6
11 11 13 9 4 5 13 18 19 19 20 17 17 16 15 13 12 14 12 11 14 13 16 16 15 15 10 7 5 3 4 3 3 3 3 1 1 2 3 4 4 4 4 5 6 8 5 3 6
16 17 13 11 4 11 12 20 21 17 14 16 16 14 13 15 16 15 14 14 14 16 16 15 15 15 12 10 6 5 4 3 3 4 4 3 2 0 2 3 3 3 4 4 6 5 6 5 4
14 12 15 11 5 5 2 10 13 7 8 10 13 15 15 12 10 14 15 15 15 14 14 15 14 14 12 12 8 9 5 5 4 5 4 4 2 1 2 2 3 4 4 4 4 4 5 5 5
3 4 10 10 9 10 11 9 6 9 9 14 14 13 14 12 12 13 14 14 14 13 13 13 14 14 12 11 8 7 5 3 5 4 6 4 4 2 1 2 2 3 3 4 5 5 5 4 4
10 10 7 3 2 7 9 13 10 13 12 11 4 10 11 10 10 11 11 12 13 13 14 13 15 13 12 10 9 8 7 6 6 6 5 5 4 3 2 1 1 3 3 4 3 4 5 4 3
12 12 3 3 4 8 3 10 15 12 6 7 8 7 11 12 12 13 15 15 15 16 15 14 15 14 12 11 10 8 7 7 7 7 5 5 4 4 3 2 2 1 2 2 2 3 3 4 4
20 16 7 8 7 3 2 11 7 7 7 5 6 5 10 12 12 14 15 15 15 15 16 16 16 14 13 11 10 8 7 5 5 6 5 4 3 3 3 2 2 1 2 1 2 2 2 3 3
11 13 8 4 2 3 8 14 14 12 13 12 9 8 12 13 13 14 15 14 15 15 15 15 15 14 13 12 9 8 7 6 6 6 5 4 4 4 3 2 2 2 1 1 1 1 2 2 4
13 14 6 4 8 11 14 19 13 3 10 14 10 9 9 12 13 14 14 14 14 14 12 14 13 13 12 11 10 8 8 7 6 6 6 6 5 5 4 3 2 2 1 1 1 2 3 3 3
10 13 10 8 11 9 8 12 13 15 16 8 11 12 13 14 14 14 14 14 14 13 13 12 12 12 11 9 9 8 7 8 7 6 6 6 5 5 5 4 3 2 2 1 1 3 2 4 4
24 21 23 10 7 11 8 16 4 3 3 3 4 10 11 12 12 13 14 14 14 14 13 12 12 10 10 9 9 8 8 8 8 7 7 6 6 5 5 4 3 3 2 2 1 3 2 4 5
Wind_Direction
277 279 286 255 244 233 253 209 8 170 194 59 27 313 360 355 351 21 116 105 129 143 119 129 109 109 109 117 109 98 89 80 70 59 50 42 35 29 26 22 17 12 7 3 0 354 350 350 340
308 304 240 277 253 232 200 147 193 171 70 118 120 225 245 82 70 107 144 138 141 129 127 120 112 109 122 120 113 103 92 82 70 58 46 37 30 27 20 15 15 8 1 355 352 349 347 344 342
269 276 263 244 251 252 4 168 152 108 132 195 195 296 353 75 82 119 88 144 141 113 126 118 114 122 128 126 118 104 92 81 67 53 43 38 29 20 15 11 5 360 357 353 349 345 345 342 336
251 195 222 252 248 260 279 151 81 155 158 195 295 219 110 36 112 78 130 145 139 121 136 127 126 135 137 131 116 104 96 82 68 57 48 38 28 18 13 7 2 357 356 351 346 344 341 336 332
228 252 245 242 257 256 261 262 255 235 147 166 189 156 93 97 104 128 141 148 146 134 140 134 125 135 135 126 115 105 93 82 69 61 48 37 26 20 11 5 0 358 354 350 346 343 339 334 328
223 279 235 238 240 197 262 248 247 236 214 121 226 228 96 119 137 139 144 147 145 131 147 142 119 125 127 123 113 105 95 84 71 61 48 37 25 18 12 11 5 1 359 354 349 343 336 330 327
260 236 248 268 268 273 249 231 226 248 230 216 43 241 92 158 119 157 150 140 145 135 148 156 147 130 100 99 105 109 100 90 75 57 39 26 25 21 18 10 7 0 360 355 347 338 333 328 322
276 267 247 231 247 251 115 199 322 253 228 76 276 242 174 143 137 153 138 155 152 154 156 159 151 162 151 139 99 100 100 92 82 60 26 340 263 37 55 6 12 359 357 344 337 333 330 323 312
274 248 245 231 231 192 138 233 151 7 262 214 180 310 95 125 142 147 154 164 166 168 170 165 164 159 152 144 125 121 114 119 155 171 40 300 4 6 353 46 351 347 345 337 338 335 326 309 285
236 241 254 360 313 270 281 267 271 238 210 222 205 121 133 144 160 163 171 175 184 180 177 176 173 164 158 157 164 149 136 116 39 15 2 1 358 11 324 282 284 288 327 314 344 334 299 283 328
210 246 306 254 284 300 285 264 236 254 246 238 219 190 173 171 184 184 192 188 191 183 179 182 175 168 175 164 164 173 155 150 84 34 7 359 355 360 8 350 359 353 3 2 354 346 344 333 325
253 243 269 304 339 273 260 298 256 244 254 63 348 193 175 189 196 197 198 194 188 183 182 180 177 172 178 167 200 162 169 148 73 50 19 357 5 4 359 5 350 351 357 357 339 327 345 337 348
239 264 263 266 268 258 277 262 269 268 260 259 227 203 198 203 202 205 201 197 187 186 181 179 176 174 170 182 169 175 145 173 60 51 50 5 9 5 6 1 357 353 355 332 345 341 348 335 351
353 269 270 272 261 246 255 266 239 251 247 248 246 214 223 215 209 201 199 193 191 188 184 175 177 175 169 178 173 174 166 113 76 37 38 25 357 9 1 4 358 7 350 333 342 348 353 334 317
286 286 275 247 245 251 240 258 238 248 251 249 229 232 223 226 218 207 198 195 191 190 180 178 174 172 171 172 170 169 141 153 124 63 55 25 6 8 359 5 11 356 317 335 346 4 349 4 7
246 245 266 58 215 211 209 259 260 49 253 241 249 231 221 227 215 207 193 193 189 184 182 176 171 170 172 167 168 156 146 146 129 117 77 49 9 8 4 9 22 350 342 346 351 354 357 5 19
205 262 230 266 195 185 216 274 52 45 244 256 250 237 226 215 205 199 189 189 184 185 178 174 170 169 165 159 152 141 145 158 143 140 102 73 14 6 355 25 10 353 323 356 18 324 22 1 21
224 224 242 254 143 222 245 261 272 262 245 262 266 237 216 213 202 194 190 186 183 183 178 170 168 164 157 146 142 148 153 171 156 148 126 206 41 2 350 22 18 356 347 5 12 347 6 1 6
295 254 252 264 98 256 257 266 273 282 278 253 253 238 228 220 194 185 189 190 191 188 176 171 167 162 158 159 156 168 188 168 176 159 144 171 8 18 358 19 28 2 1 4 4 337 5 5 356
237 245 252 265 240 239 275 276 281 273 260 253 247 239 227 215 187 169 175 185 200 185 178 173 169 165 168 161 163 158 160 172 161 166 172 169 229 26 5 5 22 7 354 7 24 341 355 10 17
224 236 241 248 323 249 288 279 261 250 240 245 239 244 232 204 195 194 191 187 188 186 180 172 168 168 167 161 137 136 120 125 158 188 179 174 194 67 13 19 357 4 358 4 26 330 9 344 45
231 222 237 253 265 259 354 292 285 279 242 231 237 229 225 215 226 197 190 191 187 179 173 172 166 167 166 157 167 172 181 165 180 177 162 158 179 152 20 351 4 10 347 360 14 341 349 354 27
233 145 214 225 243 283 245 267 260 235 254 261 233 219 213 203 196 195 188 187 179 171 169 167 164 165 165 167 176 179 181 144 153 161 156 168 160 184 59 3 17 31 354 357 17 348 356 22 22
143 119 94 127 218 250 221 223 256 251 240 244 254 193 192 186 183 180 175 171 169 163 164 161 165 165 165 168 175 179 176 164 164 168 171 172 164 169 172 157 52 48 9 359 3 342 353 19 48
198 164 115 202 189 247 45 210 253 293 280 254 269 209 181 175 174 169 169 172 166 169 165 163 168 163 168 172 173 180 181 176 182 174 181 163 171 180 165 154 92 66 23 340 320 7 360 17 57
197 192 186 205 186 248 124 233 259 231 295 279 248 273 175 175 173 173 174 175 170 170 167 166 167 164 170 173 175 175 178 182 184 184 170 177 173 164 161 154 110 38 46 349 321 27 24 13 58
177 214 209 86 95 271 216 251 264 233 244 227 233 215 188 185 175 174 173 170 169 170 170 171 169 167 171 173 171 175 177 184 182 170 172 161 164 158 174 184 166 132 127 61 286 83 72 71 81
203 160 166 216 210 236 248 255 253 268 251 242 217 209 193 185 178 173 173 172 170 170 167 173 174 172 172 171 173 176 177 177 181 173 180 174 168 168 178 186 191 128 86 90 56 110 109 124 105
171 190 206 187 219 209 258 247 237 228 242 245 213 200 191 184 181 177 174 173 170 169 170 173 176 172 173 176 171 169 169 176 180 183 177 180 169 177 177 185 184 153 162 117 80 101 112 129 125
213 210 195 194 178 232 262 260 145 226 225 220 250 188 184 181 180 179 176 172 173 173 174 176 177 174 176 176 172 174 172 173 182 190 180 174 183 180 172 185 191 170 171 157 111 108 105 131 136